This demonstration page uses our WeatherBlox Daily Observations layout. Learn more.

Left ArrowRight Arrow

Hourly Observations for May 24, 2019

Temp ( °F °C ) Dew Point ( °F °C ) Humidity (%) Winds ( mph kmh ) Pressure ( in mb ) Visibility ( mi km ) Precip ( " mm )
12:52 am 00:52 Clear 72 22.2 66 18.9 82 82 SSE 8 13 30.00 1016 10 16 0.00 0.00
1:52 am 01:52 Clear 72 22.2 66 18.9 82 82 SSE 8 13 29.98 1015 10 16 0.00 0.00
2:52 am 02:52 Clear 71 21.7 66 18.9 84 84 SSE 8 13 29.97 1015 10 16 0.00 0.00
3:52 am 03:52 Clear 71 21.7 66 18.9 84 84 SSE 10 17 29.98 1015 10 16 0.00 0.00
4:52 am 04:52 Clear 70 21.1 66 18.9 87 87 SSE 8 13 30.00 1016 10 16 0.00 0.00
5:52 am 05:52 Clear 70 21.1 66 18.9 87 87 SSE 10 17 30.01 1016 10 16 0.00 0.00
6:52 am 06:52 Sunny 71 21.7 66 18.9 84 84 SSE 10 17 30.02 1017 10 16 0.00 0.00
7:52 am 07:52 Sunny 74 23.3 68 20 82 82 S 14 22 30.03 1017 10 16 0.00 0.00
8:52 am 08:52 Sunny 77 25 67 19.4 71 71 S 15 24 30.03 1017 10 16 0.00 0.00
9:52 am 09:52 Sunny 79 26.1 67 19.4 67 67 SSW 17 28 30.03 1017 10 16 0.00 0.00
10:52 am 10:52 Mostly Sunny 80 26.7 68 20 67 67 S 18 30 30.04 1017 10 16 0.00 0.00
11:52 am 11:52 Partly Cloudy 82 27.8 69 20.6 65 65 SSW 14 22 30.04 1017 10 16 0.00 0.00
12:52 pm 12:52 Mostly Sunny 84 28.9 69 20.6 61 61 S 17 28 30.01 1016 10 16 0.00 0.00
1:52 pm 13:52 Mostly Sunny 85 29.4 67 19.4 55 55 S 18 30 29.99 1016 10 16 0.00 0.00
2:52 pm 14:52 Mostly Sunny 86 30 67 19.4 53 53 S 18 30 29.98 1015 10 16 0.00 0.00
3:52 pm 15:52 Sunny 86 30 67 19.4 53 53 S 16 26 29.95 1014 10 16 0.00 0.00
4:52 pm 16:52 Sunny 86 30 65 18.3 49 49 S 16 26 29.93 1014 10 16 0.00 0.00
5:52 pm 17:52 Sunny 85 29.4 64 17.8 50 50 S 17 28 29.90 1012 10 16 0.00 0.00
7:52 pm 19:52 Sunny 80 26.7 64 17.8 58 58 S 10 17 29.89 1012 10 16 0.00 0.00
8:52 pm 20:52 Clear 76 24.4 63 17.2 64 64 S 8 13 29.93 1014 10 16 0.00 0.00
9:52 pm 21:52 Clear 76 24.4 63 17.2 64 64 S 10 17 29.96 1015 10 16 0.00 0.00
10:52 pm 22:52 Clear 74 23.3 63 17.2 69 69 S 8 13 30.01 1016 10 16 0.00 0.00
11:52 pm 23:52 Clear 73 22.8 63 17.2 71 71 SSE 9 15 29.98 1015 10 16 0.00 0.00

Powered by AerisWeather